PDT5935 KILM-KPHL

Flight info

Callsign PDT5935
Flight time 1h 10m
Altitude 33000
Route WALLO YEASO Q97 ZJAAY JIIMS4
Aircraft E145/M-SABDFGRW/S

Departure

Time 2026-05-07 01:05
Airport Wilmington International Airport (KILM)

Arrival

Time 2026-05-07 02:15
Airport Philadelphia International Airport (KPHL)
Time Latitude Longitude Altitude Speed Heading
2026-05-07 00:33 34.26557 -77.90991 27 ft 0 kts 347°
2026-05-07 00:54 34.26554 -77.90990 27 ft 2 kts 347°
2026-05-07 00:54 34.26539 -77.90986 27 ft 2 kts 347°
2026-05-07 00:54 34.26525 -77.90984 27 ft 2 kts 20°
2026-05-07 00:54 34.26514 -77.90995 27 ft 2 kts 50°
2026-05-07 00:55 34.26504 -77.91009 27 ft 2 kts 46°
2026-05-07 00:55 34.26494 -77.91022 27 ft 2 kts 49°
2026-05-07 00:55 34.26487 -77.91037 27 ft 2 kts 75°
2026-05-07 00:55 34.26485 -77.91054 27 ft 2 kts 104°
2026-05-07 00:56 34.26492 -77.91069 27 ft 2 kts 136°
2026-05-07 00:56 34.26496 -77.91074 27 ft 0 kts 141°
2026-05-07 00:59 34.26483 -77.91058 27 ft 2 kts 135°
2026-05-07 00:59 34.26465 -77.91037 27 ft 4 kts 135°
2026-05-07 00:59 34.26443 -77.90992 27 ft 8 kts 77°
2026-05-07 01:00 34.26492 -77.90927 27 ft 12 kts 48°
2026-05-07 01:00 34.26558 -77.90836 28 ft 15 kts 48°
2026-05-07 01:00 34.26634 -77.90733 28 ft 17 kts 48°
2026-05-07 01:00 34.26718 -77.90620 28 ft 19 kts 49°
2026-05-07 01:01 34.26826 -77.90542 29 ft 19 kts 347°
2026-05-07 01:01 34.26960 -77.90597 30 ft 20 kts 339°
2026-05-07 01:01 34.27094 -77.90664 31 ft 21 kts 323°
2026-05-07 01:01 34.27227 -77.90762 32 ft 22 kts 332°
2026-05-07 01:02 34.27364 -77.90851 32 ft 18 kts 331°
2026-05-07 01:02 34.27488 -77.90918 32 ft 20 kts 348°
2026-05-07 01:02 34.27636 -77.90952 32 ft 22 kts 349°
2026-05-07 01:02 34.27789 -77.90989 32 ft 19 kts 349°
2026-05-07 01:03 34.27930 -77.91021 31 ft 21 kts 349°
2026-05-07 01:03 34.28081 -77.91058 31 ft 23 kts 348°
2026-05-07 01:03 34.28211 -77.91097 31 ft 13 kts 339°
2026-05-07 01:03 34.28270 -77.91096 31 ft 3 kts 52°
2026-05-07 01:04 34.28273 -77.91089 31 ft 2 kts 61°
2026-05-07 01:04 34.28288 -77.91045 31 ft 7 kts 71°
2026-05-07 01:04 34.28279 -77.90984 31 ft 8 kts 158°
2026-05-07 01:04 34.28178 -77.90942 31 ft 35 kts 159°
2026-05-07 01:05 34.27696 -77.90720 32 ft 108 kts 161°
2026-05-07 01:05 34.26847 -77.90290 141 ft 147 kts 160°
2026-05-07 01:05 34.25892 -77.89702 672 ft 160 kts 160°
2026-05-07 01:05 34.24879 -77.89105 1364 ft 167 kts 161°
2026-05-07 01:06 34.23880 -77.88438 2167 ft 166 kts 159°
2026-05-07 01:06 34.22832 -77.88145 2891 ft 155 kts 197°
2026-05-07 01:06 34.22008 -77.88877 3466 ft 153 kts 241°
2026-05-07 01:06 34.21902 -77.90271 3553 ft 193 kts 282°
2026-05-07 01:07 34.22493 -77.91915 3563 ft 232 kts 290°
2026-05-07 01:07 34.23206 -77.93789 3950 ft 252 kts 290°
2026-05-07 01:07 34.23921 -77.95695 4793 ft 252 kts 295°
2026-05-07 01:07 34.25118 -77.97263 5628 ft 259 kts 320°
2026-05-07 01:08 34.26564 -77.98499 6444 ft 258 kts 320°
2026-05-07 01:08 34.28040 -77.99756 7195 ft 260 kts 320°
2026-05-07 01:08 34.29543 -78.01047 7854 ft 265 kts 320°
2026-05-07 01:08 34.31038 -78.02342 8581 ft 266 kts 320°
2026-05-07 01:09 34.32710 -78.03378 9289 ft 272 kts 334°
2026-05-07 01:09 34.34570 -78.03969 9889 ft 285 kts 352°
2026-05-07 01:09 34.36643 -78.03818 9977 ft 313 kts
2026-05-07 01:09 34.38879 -78.03507 10397 ft 323 kts
2026-05-07 01:10 34.41129 -78.03178 11113 ft 322 kts
2026-05-07 01:10 34.43365 -78.02847 11724 ft 324 kts
2026-05-07 01:10 34.45614 -78.02514 12299 ft 327 kts
2026-05-07 01:10 34.47890 -78.02177 12819 ft 331 kts
2026-05-07 01:11 34.50185 -78.01835 13344 ft 334 kts
2026-05-07 01:11 34.52495 -78.01492 13954 ft 334 kts
2026-05-07 01:11 34.54810 -78.01149 14477 ft 336 kts
2026-05-07 01:11 34.57174 -78.00796 14923 ft 340 kts
2026-05-07 01:12 34.59551 -78.00442 15466 ft 341 kts
2026-05-07 01:12 34.61929 -78.00089 15945 ft 344 kts
2026-05-07 01:12 34.64322 -77.99733 16434 ft 346 kts 360°
2026-05-07 01:12 34.66743 -77.99372 16905 ft 349 kts
2026-05-07 01:13 34.69184 -77.99008 17367 ft 351 kts 360°
2026-05-07 01:13 34.71654 -77.98639 17802 ft 354 kts 360°
2026-05-07 01:13 34.74102 -77.98275 18214 ft 357 kts
2026-05-07 01:13 34.76600 -77.97900 18698 ft 357 kts
2026-05-07 01:14 34.79096 -77.97529 19028 ft 362 kts 360°
2026-05-07 01:14 34.81636 -77.97150 19402 ft 366 kts
2026-05-07 01:14 34.84163 -77.96770 19850 ft 366 kts
2026-05-07 01:14 34.86725 -77.96382 20209 ft 370 kts
2026-05-07 01:15 34.89206 -77.95478 20592 ft 381 kts 17°
2026-05-07 01:15 34.91698 -77.94214 20909 ft 385 kts 17°
2026-05-07 01:15 34.94195 -77.92955 21296 ft 387 kts 17°
2026-05-07 01:15 34.96720 -77.91682 21538 ft 392 kts 17°
2026-05-07 01:16 34.99267 -77.90397 21953 ft 392 kts 17°
2026-05-07 01:16 35.01798 -77.89117 22314 ft 394 kts 17°
2026-05-07 01:16 35.04306 -77.87851 22640 ft 396 kts 17°
2026-05-07 01:16 35.06885 -77.86546 23009 ft 397 kts 17°
2026-05-07 01:17 35.09451 -77.85249 23271 ft 401 kts 17°
2026-05-07 01:17 35.12044 -77.83935 23607 ft 403 kts 17°
2026-05-07 01:17 35.14660 -77.82609 23957 ft 404 kts 16°
2026-05-07 01:17 35.17312 -77.81265 24287 ft 406 kts 17°
2026-05-07 01:18 35.19944 -77.79930 24540 ft 410 kts 17°
2026-05-07 01:18 35.22586 -77.78587 24929 ft 409 kts 16°
2026-05-07 01:18 35.25210 -77.77255 25170 ft 413 kts 15°
2026-05-07 01:18 35.27895 -77.75890 25518 ft 413 kts 15°
2026-05-07 01:19 35.30561 -77.74533 25843 ft 414 kts 15°
2026-05-07 01:19 35.33198 -77.73189 26369 ft 409 kts 15°
2026-05-07 01:19 35.35864 -77.71832 26611 ft 413 kts 15°
2026-05-07 01:19 35.38538 -77.70468 27006 ft 411 kts 15°
2026-05-07 01:20 35.41164 -77.69127 27465 ft 409 kts 15°
2026-05-07 01:20 35.43813 -77.67774 27813 ft 409 kts 15°
2026-05-07 01:20 35.46451 -77.66426 28197 ft 408 kts 15°
2026-05-07 01:20 35.49051 -77.65096 28560 ft 408 kts 14°
2026-05-07 01:21 35.51717 -77.63734 28775 ft 411 kts 14°
2026-05-07 01:21 35.54328 -77.62354 29328 ft 408 kts 18°
2026-05-07 01:21 35.56795 -77.60572 29641 ft 419 kts 27°
2026-05-07 01:21 35.59111 -77.58323 29982 ft 422 kts 30°
2026-05-07 01:22 35.61412 -77.56086 30415 ft 419 kts 29°
2026-05-07 01:22 35.63707 -77.53878 30679 ft 421 kts 28°
2026-05-07 01:22 35.66019 -77.51658 31048 ft 420 kts 28°
2026-05-07 01:22 35.68298 -77.49468 31469 ft 417 kts 28°
2026-05-07 01:23 35.70615 -77.47246 31822 ft 417 kts 27°
2026-05-07 01:23 35.72885 -77.45063 32145 ft 418 kts 27°
2026-05-07 01:23 35.75160 -77.42875 32501 ft 417 kts 26°
2026-05-07 01:23 35.77462 -77.40660 32804 ft 418 kts 26°
2026-05-07 01:24 35.79752 -77.38456 32947 ft 421 kts 26°
2026-05-07 01:24 35.84402 -77.33971 32948 ft 424 kts 27°
2026-05-07 01:25 35.89050 -77.29481 32930 ft 426 kts 27°
2026-05-07 01:25 35.93749 -77.24983 32932 ft 424 kts 24°
2026-05-07 01:26 35.98599 -77.20839 32944 ft 425 kts 23°
2026-05-07 01:26 36.03450 -77.16640 32935 ft 426 kts 23°
2026-05-07 01:27 36.08322 -77.12416 32939 ft 428 kts 23°
2026-05-07 01:27 36.13196 -77.08182 32949 ft 430 kts 23°
2026-05-07 01:28 36.18124 -77.03895 32941 ft 431 kts 23°
2026-05-07 01:28 36.23049 -76.99603 32937 ft 433 kts 23°
2026-05-07 01:29 36.27976 -76.95304 32938 ft 435 kts 23°
2026-05-07 01:29 36.32947 -76.90961 32800 ft 440 kts 23°
2026-05-07 01:29 36.35440 -76.88779 32685 ft 443 kts 23°
2026-05-07 01:30 36.38000 -76.86547 32559 ft 446 kts 23°
2026-05-07 01:30 36.40505 -76.84403 32444 ft 449 kts 23°
2026-05-07 01:30 36.43076 -76.82200 32317 ft 453 kts 24°
2026-05-07 01:30 36.45697 -76.79948 32201 ft 456 kts 24°
2026-05-07 01:31 36.48290 -76.77719 32088 ft 458 kts 24°
2026-05-07 01:31 36.50916 -76.75461 31971 ft 461 kts 24°
2026-05-07 01:31 36.53575 -76.73171 31846 ft 464 kts 25°
2026-05-07 01:31 36.56259 -76.70858 31733 ft 466 kts 25°
2026-05-07 01:32 36.58912 -76.68569 31620 ft 468 kts 25°
2026-05-07 01:32 36.61585 -76.66261 31505 ft 470 kts 25°
2026-05-07 01:32 36.64310 -76.63907 31394 ft 472 kts 25°
2026-05-07 01:32 36.67023 -76.61562 31277 ft 474 kts 25°
2026-05-07 01:33 36.69712 -76.59234 31170 ft 476 kts 25°
2026-05-07 01:33 36.72449 -76.56863 31053 ft 477 kts 26°
2026-05-07 01:33 36.75177 -76.54498 30942 ft 479 kts 26°
2026-05-07 01:33 36.77929 -76.52110 30834 ft 481 kts 26°
2026-05-07 01:34 36.80667 -76.49731 30725 ft 483 kts 26°
2026-05-07 01:34 36.83445 -76.47318 30607 ft 484 kts 26°
2026-05-07 01:34 36.86216 -76.44906 30498 ft 485 kts 26°
2026-05-07 01:34 36.88967 -76.42510 30394 ft 486 kts 27°
2026-05-07 01:35 36.91761 -76.40075 30284 ft 488 kts 27°
2026-05-07 01:35 36.94530 -76.37659 30178 ft 489 kts 27°
2026-05-07 01:35 36.97340 -76.35205 30062 ft 490 kts 27°
2026-05-07 01:35 37.00152 -76.32748 29936 ft 491 kts 28°
2026-05-07 01:36 37.02964 -76.30286 29794 ft 492 kts 28°
2026-05-07 01:36 37.05762 -76.27838 29673 ft 493 kts 29°
2026-05-07 01:36 37.08582 -76.25366 29542 ft 494 kts 28°
2026-05-07 01:36 37.11402 -76.22891 29414 ft 495 kts 28°
2026-05-07 01:37 37.14201 -76.20435 29275 ft 495 kts 29°
2026-05-07 01:37 37.17047 -76.17933 29147 ft 496 kts 29°
2026-05-07 01:37 37.19870 -76.15449 29017 ft 496 kts 28°
2026-05-07 01:37 37.22695 -76.12961 28914 ft 496 kts 28°
2026-05-07 01:38 37.25529 -76.10463 28900 ft 494 kts 28°
2026-05-07 01:38 37.31135 -76.05515 28894 ft 491 kts 28°
2026-05-07 01:39 37.36727 -76.00571 28899 ft 487 kts 28°
2026-05-07 01:39 37.42258 -75.95671 28906 ft 485 kts 28°
2026-05-07 01:40 37.47766 -75.90784 28904 ft 483 kts 28°
2026-05-07 01:40 37.53227 -75.85928 28909 ft 481 kts 28°
2026-05-07 01:41 37.58950 -75.81607 28909 ft 475 kts 22°
2026-05-07 01:41 37.64557 -75.77427 28908 ft 474 kts 23°
2026-05-07 01:42 37.70239 -75.73164 28908 ft 474 kts 22°
2026-05-07 01:42 37.75908 -75.68901 28908 ft 474 kts 23°
2026-05-07 01:43 37.81580 -75.64627 28904 ft 474 kts 22°
2026-05-07 01:43 37.87162 -75.60117 28908 ft 480 kts 27°
2026-05-07 01:44 37.92658 -75.55302 28906 ft 479 kts 27°
2026-05-07 01:44 37.98166 -75.50500 28913 ft 479 kts 27°
2026-05-07 01:45 38.03681 -75.45688 28912 ft 480 kts 27°
2026-05-07 01:45 38.09501 -75.41801 28912 ft 468 kts 15°
2026-05-07 01:45 38.12419 -75.40107 28823 ft 456 kts 15°
2026-05-07 01:46 38.15303 -75.38422 28291 ft 448 kts 15°
2026-05-07 01:46 38.18133 -75.36769 27613 ft 446 kts 15°
2026-05-07 01:46 38.20934 -75.35127 27054 ft 443 kts 15°
2026-05-07 01:46 38.23723 -75.33491 26349 ft 443 kts 16°
2026-05-07 01:47 38.26553 -75.31828 25785 ft 439 kts 16°
2026-05-07 01:47 38.29284 -75.30222 25241 ft 435 kts 15°
2026-05-07 01:47 38.32047 -75.28596 24812 ft 428 kts 16°
2026-05-07 01:47 38.34740 -75.27010 24338 ft 422 kts 15°
2026-05-07 01:48 38.37397 -75.25447 23676 ft 423 kts 15°
2026-05-07 01:48 38.40047 -75.23883 23186 ft 418 kts 15°
2026-05-07 01:48 38.42638 -75.22352 22774 ft 412 kts 15°
2026-05-07 01:48 38.45235 -75.20821 22184 ft 412 kts 16°
2026-05-07 01:49 38.47848 -75.19274 21744 ft 408 kts 16°
2026-05-07 01:49 38.50413 -75.17757 21340 ft 402 kts 16°
2026-05-07 01:49 38.52937 -75.16261 20870 ft 398 kts 16°
2026-05-07 01:49 38.55425 -75.14789 20348 ft 394 kts 16°
2026-05-07 01:50 38.57885 -75.13313 19942 ft 391 kts 17°
2026-05-07 01:50 38.60332 -75.11746 19544 ft 389 kts 18°
2026-05-07 01:50 38.62749 -75.10200 19201 ft 384 kts 18°
2026-05-07 01:50 38.65127 -75.08678 18908 ft 382 kts 18°
2026-05-07 01:51 38.67509 -75.07153 18646 ft 381 kts 19°
2026-05-07 01:51 38.69886 -75.05629 18377 ft 380 kts 19°
2026-05-07 01:51 38.72213 -75.04137 18226 ft 374 kts 19°
2026-05-07 01:51 38.74535 -75.02645 18005 ft 372 kts 18°
2026-05-07 01:52 38.76878 -75.01141 17682 ft 373 kts 19°
2026-05-07 01:52 38.79186 -74.99658 17404 ft 372 kts 19°
2026-05-07 01:52 38.81487 -74.98177 17113 ft 371 kts 19°
2026-05-07 01:52 38.83805 -74.96686 16859 ft 370 kts 19°
2026-05-07 01:53 38.86099 -74.95208 16540 ft 370 kts 19°
2026-05-07 01:53 38.88416 -74.93714 16314 ft 367 kts 19°
2026-05-07 01:53 38.90677 -74.92255 16000 ft 368 kts 20°
2026-05-07 01:53 38.92977 -74.90771 15748 ft 366 kts 20°
2026-05-07 01:54 38.95274 -74.89285 15481 ft 365 kts 20°
2026-05-07 01:54 38.97551 -74.87814 15156 ft 366 kts 20°
2026-05-07 01:54 38.99842 -74.86331 14922 ft 364 kts 20°
2026-05-07 01:54 39.02095 -74.84872 14743 ft 360 kts 20°
2026-05-07 01:55 39.04342 -74.83418 14419 ft 362 kts 21°
2026-05-07 01:55 39.06589 -74.81960 14214 ft 360 kts 21°
2026-05-07 01:55 39.08886 -74.80779 13908 ft 351 kts
2026-05-07 01:55 39.11242 -74.80740 13577 ft 334 kts 342°
2026-05-07 01:56 39.13484 -74.81525 13279 ft 330 kts 336°
2026-05-07 01:56 39.15680 -74.82336 13124 ft 325 kts 336°
2026-05-07 01:56 39.17825 -74.83134 13013 ft 308 kts 336°
2026-05-07 01:56 39.19855 -74.83894 12632 ft 300 kts 335°
2026-05-07 01:57 39.21854 -74.84649 12097 ft 298 kts 335°
2026-05-07 01:57 39.23851 -74.85402 11495 ft 299 kts 336°
2026-05-07 01:57 39.25850 -74.86154 10997 ft 295 kts 336°
2026-05-07 01:57 39.27799 -74.86889 10435 ft 294 kts 335°
2026-05-07 01:58 39.29758 -74.87627 9908 ft 292 kts 335°
2026-05-07 01:58 39.31705 -74.88363 9387 ft 290 kts 336°
2026-05-07 01:58 39.33638 -74.89092 9008 ft 281 kts 336°
2026-05-07 01:58 39.35471 -74.89780 9005 ft 263 kts 335°
2026-05-07 01:59 39.37220 -74.90446 9007 ft 266 kts 335°
2026-05-07 01:59 39.39008 -74.91123 9009 ft 269 kts 335°
2026-05-07 01:59 39.40844 -74.91819 8996 ft 275 kts 336°
2026-05-07 01:59 39.42697 -74.92519 9008 ft 278 kts 335°
2026-05-07 02:00 39.44572 -74.93227 9004 ft 280 kts 335°
2026-05-07 02:00 39.46453 -74.93940 9000 ft 281 kts 335°
2026-05-07 02:00 39.48333 -74.94653 9004 ft 282 kts 335°
2026-05-07 02:00 39.50224 -74.95369 8985 ft 281 kts 336°
2026-05-07 02:01 39.52078 -74.96071 8996 ft 279 kts 335°
2026-05-07 02:01 39.53907 -74.96901 9009 ft 270 kts 322°
2026-05-07 02:01 39.55446 -74.98264 9006 ft 266 kts 317°
2026-05-07 02:01 39.56981 -74.99598 8991 ft 265 kts 318°
2026-05-07 02:02 39.58526 -75.00941 9010 ft 265 kts 319°
2026-05-07 02:02 39.60052 -75.02264 9005 ft 265 kts 318°
2026-05-07 02:02 39.61595 -75.03610 8997 ft 264 kts 318°
2026-05-07 02:02 39.63254 -75.04701 8892 ft 277 kts 335°
2026-05-07 02:03 39.65154 -75.05319 8482 ft 281 kts 339°
2026-05-07 02:03 39.67047 -75.05931 8077 ft 279 kts 338°
2026-05-07 02:03 39.68914 -75.06546 7659 ft 277 kts 339°
2026-05-07 02:03 39.70801 -75.07175 7213 ft 274 kts 338°
2026-05-07 02:04 39.72628 -75.07778 7002 ft 265 kts 338°
2026-05-07 02:04 39.74423 -75.08386 7003 ft 267 kts 338°
2026-05-07 02:04 39.76234 -75.08997 7011 ft 270 kts 338°
2026-05-07 02:04 39.78070 -75.09602 6993 ft 271 kts 338°
2026-05-07 02:05 39.79857 -75.10207 6847 ft 262 kts 338°
2026-05-07 02:05 39.81627 -75.10789 6438 ft 263 kts 338°
2026-05-07 02:05 39.83409 -75.11382 6005 ft 264 kts 338°
2026-05-07 02:05 39.85195 -75.11991 5633 ft 261 kts 338°
2026-05-07 02:06 39.86930 -75.12588 5343 ft 256 kts 339°
2026-05-07 02:06 39.88643 -75.13196 5031 ft 250 kts 338°
2026-05-07 02:06 39.90291 -75.13783 5003 ft 235 kts 338°
2026-05-07 02:06 39.91847 -75.14339 5005 ft 233 kts 338°
2026-05-07 02:07 39.93452 -75.14899 5015 ft 242 kts 339°
2026-05-07 02:07 39.96810 -75.16090 5011 ft 253 kts 339°
2026-05-07 02:07 39.98483 -75.16695 4730 ft 248 kts 338°
2026-05-07 02:08 40.00148 -75.17308 4266 ft 250 kts 339°
2026-05-07 02:08 40.01830 -75.17950 3889 ft 247 kts 338°
2026-05-07 02:08 40.03476 -75.18600 3525 ft 245 kts 338°
2026-05-07 02:08 40.05082 -75.19251 3237 ft 239 kts 339°
2026-05-07 02:09 40.06673 -75.19906 3020 ft 238 kts 339°
2026-05-07 02:09 40.08255 -75.20567 3011 ft 238 kts 338°
2026-05-07 02:09 40.09821 -75.21235 3008 ft 232 kts 334°
2026-05-07 02:09 40.11028 -75.22535 3010 ft 217 kts 299°
2026-05-07 02:10 40.11340 -75.24377 3015 ft 211 kts 264°
2026-05-07 02:10 40.10826 -75.26193 3019 ft 213 kts 248°
2026-05-07 02:10 40.10176 -75.27951 3009 ft 217 kts 245°
2026-05-07 02:10 40.09082 -75.29333 3021 ft 228 kts 210°
2026-05-07 02:11 40.07480 -75.29744 3030 ft 234 kts 188°
2026-05-07 02:11 40.05853 -75.29860 3014 ft 232 kts 188°
2026-05-07 02:11 40.04250 -75.29977 3007 ft 225 kts 189°
2026-05-07 02:11 40.02683 -75.30032 2793 ft 229 kts 181°
2026-05-07 02:12 40.01103 -75.29614 2531 ft 232 kts 167°
2026-05-07 02:12 39.99561 -75.28937 2241 ft 234 kts 163°
2026-05-07 02:12 39.98050 -75.28203 1957 ft 223 kts 162°
2026-05-07 02:12 39.96714 -75.27539 1687 ft 189 kts 163°
2026-05-07 02:13 39.95560 -75.26968 1436 ft 163 kts 163°
2026-05-07 02:13 39.94539 -75.26464 1225 ft 157 kts 163°
2026-05-07 02:13 39.93528 -75.25962 1017 ft 152 kts 163°
2026-05-07 02:13 39.92549 -75.25478 818 ft 146 kts 163°
2026-05-07 02:14 39.91612 -75.25022 616 ft 140 kts 164°
2026-05-07 02:14 39.90717 -75.24560 450 ft 134 kts 164°
2026-05-07 02:14 39.89852 -75.24149 286 ft 132 kts 164°
2026-05-07 02:14 39.88987 -75.23721 98 ft 131 kts 163°
2026-05-07 02:15 39.88165 -75.23311 15 ft 114 kts 161°
2026-05-07 02:15 39.87671 -75.23068 15 ft 50 kts 161°
2026-05-07 02:15 39.87488 -75.23061 15 ft 18 kts 246°
2026-05-07 02:15 39.87457 -75.23206 15 ft 13 kts 264°
2026-05-07 02:16 39.87527 -75.23274 15 ft 14 kts 341°
2026-05-07 02:16 39.87629 -75.23325 15 ft 16 kts 337°
2026-05-07 02:16 39.87744 -75.23381 14 ft 18 kts 339°
2026-05-07 02:16 39.87872 -75.23437 14 ft 18 kts 357°
2026-05-07 02:17 39.87990 -75.23459 14 ft 17 kts 341°
2026-05-07 02:17 39.88109 -75.23518 14 ft 19 kts 340°
2026-05-07 02:17 39.88226 -75.23576 14 ft 19 kts 339°
2026-05-07 02:17 39.88309 -75.23635 14 ft 11 kts 291°
2026-05-07 02:18 39.88300 -75.23744 14 ft 13 kts 245°
2026-05-07 02:18 39.88216 -75.23809 14 ft 15 kts 193°
2026-05-07 02:18 39.88152 -75.23806 13 ft 7 kts 142°
2026-05-07 02:18 39.88142 -75.23781 14 ft 3 kts 106°
2026-05-07 02:19 39.88141 -75.23775 14 ft 0 kts 105°